www.pogodaiklimat.ru

Погода и климат >> Архив погоды >> Иран >> Kermanshah


ПОГОДА в Kermanshah

  • Прогноз погоды в Kermanshah
  • Монитор погоды в Kermanshah
  • Климат города

АРХИВ ПОГОДЫ в Kermanshah

Время (UTC), дата Ветер
(напр.,м/с)
 
Видим.   Явления Облачность Т
(С)
Тd
(С)
f
(%)
Тe
(С)
Тes
(С)
Комфортность P
(гПа)
Po
(гПа)
Тmin
(С)
Tmax
(С)
R
(мм)
R24
(мм)
S
(см)
00 12.12 ЮВ 2 10 км ясно -3.8 -9.1 67 -8 -8 1027.1 875.8
03 12.12 штиль 0 10 км ясно -3.7 -8.6 69 -4 -4 1029.5 876.1 -5.8
06 12.12 СВ 2 10 км ясно +3.0 -6.5 50 +1 +3 1028.9 876.8
09 12.12 СЗ 2 10 км ясно +9.9 -13.7 17 +9 +16 1027.1 875.5
12 12.12 штиль 0 10 км ясно +12.3 -14.8 14 +13 +15 1025.4 874.1
15 12.12 В 2 10 км ясно +5.0 -9.6 34 +3 +3 1027.8 874.4 +12.4
18 12.12 ЮВ 2 10 км ясно +1.2 -9.2 46 -1 -1 1028.4 875.6
21 12.12 штиль 0 10 км ясно -1.0 -7.4 62 -2 -2 1026.4 875.3
00 13.12 штиль 0 10 км ясно -0.2 -7.0 60 -1 -1 1025.2 874.9
03 13.12 штиль 0 10 км ясно -3.8 -8.4 70 -5 -5 1028.1 874.6 -4.7
06 13.12 штиль 0 10 км ясно +2.1 -6.1 55 +2 +5 1028.1 875.3
09 13.12 В 3 10 км ясно +11.0 -10.0 22 +10 +15 1024.8 874.0
12 13.12 Ю 2 10 км 1/0
[Ci fib]
+13.3 -11.5 17 +13 +15 1020.9 871.4
15 13.12 штиль 0 10 км 3/0
[Ci sp]
+8.4 -9.1 28 +8 +8 1023.5 871.5 +13.5
18 13.12 ЮВ 2 10 км ясно +3.0 -7.2 47 +1 +1 1024.1 872.3
21 13.12 штиль 0 10 км ясно +1.5 -6.6 55 +1 +1 1022.4 871.7
00 14.12 штиль 0 10 км ясно -1.2 -6.6 67 -2 -2 1021.0 871.3
03 14.12 В 2 10 км ясно -2.4 -6.5 73 -6 -6 1022.2 870.9 -3.8
06 14.12 штиль 0 10 км 4/1 1350 м
[Sc diur, vesp Ci fib]
+2.0 -4.4 63 +1 +4 1024.0 872.2
09 14.12 ЮВ 3 10 км 8/4 1350 м
[Sc diur, vesp As trans]
+9.8 -4.6 36 +8 +10 1020.3 870.6
12 14.12 З 2 10 км 9/6 1050 м
[Cb calv As trans]
+10.2 -5.4 33 +9 +10 1019.6 869.4
15 14.12 штиль 0 10 км 8/4 1200 м
[Sc diur, vesp Cs]
+5.5 -5.2 46 +5 +5 1021.5 869.6 +11.2
18 14.12 штиль 0 10 км ясно +1.0 -7.0 55 +1 +1 1022.1 870.1
21 14.12 В 2 10 км ясно -2.2 -7.3 68 -6 -6 1021.6 870.1
00 15.12 Ю 3 10 км 4/0
[Ac trans]
-4.4 -7.6 78 -10 -10 1021.2 870.0
03 15.12 штиль 0 10 км 4/1 1350 м
[Sc diur, vesp Ac trans]
-3.3 -6.9 76 -4 -4 1022.3 870.0 -4.7
06 15.12 штиль 0 10 км 8/3 1350 м
[Sc diur, vesp Ac und]
+1.1 -4.1 68 0 +2 1023.7 871.3
09 15.12 штиль 0 10 км 3/3 1350 м
[Cu hum]
+10.2 -4.3 36 +10 +16 1020.9 870.3
12 15.12 З 3 10 км 3/3 1350 м
[Cu hum]
+13.0 -3.8 31 +12 +13 1019.6 869.3
15 15.12 штиль 0 10 км ясно +7.1 -3.8 46 +7 +7 1022.2 870.4 +13.4
18 15.12 штиль 0 10 км ясно +2.0 -4.1 64 +1 +1 1023.6 871.4
21 15.12 штиль 0 10 км 4/0
[Ci sp]
-0.1 -4.7 71 -1 -1 1022.6 872.3
00 16.12 В 2 10 км ясно -1.6 -4.1 83 -5 -5 1022.8 872.8
03 16.12 В 2 10 км ясно -4.2 -6.7 83 -8 -8 1026.8 874.0 -4.4
06 16.12 В 2 8000 м мгла ясно +1.5 -3.2 71 -2 +1 1028.3 875.5
09 16.12 ЮВ 2 10 км ясно +10.4 -4.0 36 +10 +16 1025.3 874.6
12 16.12 З 3 10 км ясно +13.6 -6.0 25 +13 +15 1023.0 873.0
15 16.12 С 3 10 км ясно +8.9 -5.0 37 +7 +7 1025.7 873.6 +13.8
18 16.12 штиль 0 10 км ясно +2.7 -5.1 56 +2 +2 1027.5 874.9
21 16.12 штиль 0 10 км ясно +1.5 -4.5 64 +1 +1 1026.6 875.6
00 17.12 штиль 0 10 км ясно -1.0 -7.4 62 -2 -2 1026.0 875.7
03 17.12 В 2 10 км ясно -3.7 -7.1 77 -8 -8 1028.9 876.3 -3.8
06 17.12 штиль 0 10 км 4/0
[Ci fib]
+2.7 -3.6 63 +2 +5 1029.8 877.3
09 17.12 штиль 0 10 км 3/0
[Ci fib]
+11.7 -3.2 35 +12 +20 1025.6 875.6
12 17.12 З 2 10 км ясно +14.6 -9.7 18 +15 +17 1023.0 873.3
15 17.12 С 2 10 км ясно +10.0 -9.2 25 +9 +9 1025.6 873.8 +14.8
18 17.12 штиль 0 10 км ясно +2.2 -7.0 51 +2 +2 1027.1 874.7
21 17.12 штиль 0 10 км ясно -0.7 -6.3 66 -1 -1 1026.2 875.6
00 18.12 В 2 10 км ясно -2.0 -6.3 72 -6 -6 1025.6 875.4
03 18.12 штиль 0 10 км ясно -4.0 -7.9 74 -5 -5 1028.1 875.9 -4.0
06 18.12 штиль 0 10 км 8/0
[Ac und]
+0.5 -4.9 67 -0 +1 1030.1 876.8
09 18.12 З 2 10 км ясно +11.4 -4.1 34 +11 +17 1026.1 875.4
12 18.12 СЗ 3 10 км ясно +15.0 -13.7 12 +15 +16 1023.7 873.7
15 18.12 СЗ 2 10 км ясно +10.6 -13.0 18 +10 +10 1026.8 874.8 +15.1
18 18.12 З 2 10 км ясно +6.6 -7.5 36 +5 +5 1028.1 876.1
21 18.12 штиль 0 10 км ясно -0.2 -7.8 57 -1 -1 876.5

 

Местоположение метеостанции Kermanshah (Иран): широта 34.27 долгота 47.12 высота над уровнем моря 1322 м.

В архиве по умолчанию представлена погода в Kermanshah за последнюю неделю. Архивные данные за месяц целиком и за предыдущие месяцы, начиная с января 2011 года, Вы можете получить, выбрав интересующий диапазон дат из раскрывающегося списка и нажав кнопку "Ввод!".

Внимание! Время в таблицах - всемирное. Для получения местного времени необходимо прибавить поправку, которая в Kermanshah равна 3.5 ч.

Смотрите также архив погоды в соседних городах и на ближайших метеорологических станциях:

Погода в Ilam (Иран) (95 км)
Погода в Sanandaj (Иран) (118 км)
Погода в Hamedan (Иран) (144 км)
Погода в Khorram Abad (Иран) (145 км)
Погода в Halabcha (Ирак) (149 км)
Погода в Khanaqin (Ирак) (155 км)
Погода в Badrah (Ирак) (169 км)
Погода в Ali Al-Gharbi (Ирак) (204 км)
Погода в Sulaimaniya (Ирак) (208 км)
Погода в Saghez (Иран) (233 км)

Пояснения к столбцам:

Ветер - указаны скорость ветра в м/с - средняя за 10 мин, порывы в срок и между сроками (в фигурных скобках) и направление, откуда дует ветер: С - северный, СВ - северо-восточный, В - восточный, ЮВ - юго-восточный, Ю - южный, ЮЗ - юго-западный, З - западный, СЗ - северо-западный.
Видимость - горизонтальная дальность видимости в метрах или километрах. При видимости от 1 до 10 км при отсутствии осадков обычно наблюдается дымка, при ухудшении видимости до 1 км и менее - туман. В сухую погоду видимость может ухудшаться дымом, пылью или мглою.
Явления - указаны атмосферные явления, наблюдавшиеся в срок или в последний час перед сроком; фигурными скобками обозначены явления, наблюдавшиеся между сроками (за 1-3 часа до срока); квадратными скобками обозначены град или гололедные отложения с указанием их диаметра в мм.
Облачность - указаны через наклонную черту общая и нижняя облачность в баллах и высота нижней границы облаков в метрах; квадратными скобками обозначены формы облаков: Ci - перистые, Cs - перисто-слоистые, Cc - перисто-кучевые, Ac - высококучевые, As - высокослоистые, Sc - слоисто-кучевые, Ns - слоисто-дождевые, Cu - кучевые, Cb - кучево-дождевые. Подробнее классификацию облаков см. в Атласе облаков (PDF).
T - Температура воздуха - температура, измеренная на высоте 2 м над землей.
Td - Температура точки росы - температура, при понижении до которой содержащийся в воздухе водяной пар достигнет насыщения.
f - Относительная влажность воздуха - влажноcть воздуха, измеренная на высоте 2 м над землей.
Te - Эффективная температура - температура, которую ощущает одетый по сезону человек в тени. Характеристика душности погоды. При расчете учитывается влияние влажности воздуха и скорости ветра на теплоощущения человека.
Tes - Эффективная температура на солнце - температура, которую ощущает человек, с поправкой на солнечный нагрев. Характеристика знойности погоды. Зависит от высоты солнца над горизонтом, облачности и скорости ветра. Ночью, в пасмурную погоду, а также при ветре 12 м/с и более поправка равна нулю.
P - Атмосферное давление - приведенное к уровню моря атмосферное давление.
Po - Атмосферное давление - измеренное на уровне метеостанции атмосферное давление.
Tmin - Минимальная температура - минимум температуры воздуха на высоте 2 м над землей.
Tmax - Максимальная температура - максимум температуры воздуха на высоте 2 м над землей.
R - Количество осадков - Количество выпавших осадков за период времени, мм. При наведении курсора мыши на число - период времени, за который выпало указанное количество осадков.
R24 - Количество осадков - Количество выпавших осадков за 24 часа, мм.
S - Снежный покров - Высота снежного покрова, см. При наведении курсора мыши на число - состояние снежного покрова и степень покрытия местности в баллах.